EW7448 Weather Reports


Display with metric or nautical units.
time (UTC)temp
F
wind
direction
speed
MPH
gust
MPH
rain 1hr
in
rain 24hr
in
rain mn
in
humidity
%
barometer
mb
20260905223017 81 127 0.0 3.0 0.00 0.22 0.19 89 1011.1
20260905221515 81 143 0.0 3.0 0.00 0.22 0.19 88 1010.3
20260905220021 80 93 0.0 2.0 0.00 0.22 0.19 90 1009.8
20260905214512 79 162 0.0 3.0 0.00 0.22 0.19 91 1010.1
20260905213028 79 89 1.0 4.0 0.00 0.22 0.19 92 1010.4
20260905211511 79 49 1.0 6.0 0.00 0.22 0.19 92 1010.5
20260905210013 79 14 4.0 12.0 0.00 0.22 0.19 91 1011.4
20260905204512 80 15 4.0 8.0 0.16 0.22 0.19 89 1011.7
20260905203009 82 113 1.0 7.0 0.19 0.22 0.19 90 1010.8
20260905201508 84 345 4.0 11.0 0.19 0.22 0.19 90 1010.7
20260905200009 84 152 0.0 4.0 0.19 0.22 0.19 87 1010.4
20260905194506 88 233 1.0 6.0 0.01 0.04 0.01 80 1010.5
20260905193003 95 226 0.0 2.0 0.00 0.03 0.00 65 1010.4
20260905191503 97 231 0.0 2.0 0.00 0.03 0.00 65 1010.4
20260905190002 97 211 0.0 6.0 0.00 0.03 0.00 61 1010.6
20260905184502 97 210 1.0 6.0 0.00 0.03 0.00 62 1010.5
20260905183100 96 195 0.0 4.0 0.00 0.03 0.00 65 1010.6
20260905181557 96 250 1.0 6.0 0.00 0.03 0.00 65 1010.8
20260905180058 95 226 0.0 3.0 0.00 0.03 0.00 70 1010.9
20260905174549 94 279 0.0 5.0 0.00 0.03 0.00 70 1011.1
20260905173044 95 23 1.0 5.0 0.00 0.03 0.00 69 1011.4
20260905171541 93 212 1.0 4.0 0.00 0.03 0.00 72 1011.5
20260905170046 93 170 0.0 4.0 0.00 0.03 0.00 72 1011.8
20260905164540 93 217 0.0 3.0 0.00 0.03 0.00 73 1011.9
20260905163039 92 291 0.0 3.0 0.00 0.03 0.00 74 1012.1
20260905161537 93 267 0.0 5.0 0.00 0.03 0.00 75 1012.3
20260905160040 92 143 0.0 6.0 0.00 0.03 0.00 75 1012.6
20260905154529 91 282 0.0 7.0 0.00 0.03 0.00 78 1012.7
20260905153035 90 215 1.0 4.0 0.00 0.03 0.00 79 1012.8
20260905151525 90 198 1.0 5.0 0.00 0.03 0.00 81 1012.9
20260905150021 89 184 0.0 5.0 0.00 0.03 0.00 83 1012.8
20260905144526 89 250 0.0 3.0 0.00 0.03 0.00 84 1013.0
20260905143014 87 182 0.0 4.0 0.00 0.03 0.00 87 1012.8
20260905141513 87 176 0.0 5.0 0.00 0.03 0.00 88 1013.0
20260905140009 87 214 0.0 3.0 0.00 0.03 0.00 89 1013.0
20260905134504 86 160 0.0 3.0 0.00 0.03 0.00 90 1013.0
20260905133101 85 231 0.0 3.0 0.00 0.03 0.00 91 1012.9
20260905131556 83 200 0.0 3.0 0.00 0.03 0.00 93 1012.9
20260905130052 81 231 0.0 2.0 0.00 0.03 0.00 95 1012.8
20260905124548 79 205 0.0 2.0 0.00 0.03 0.00 98 1012.9
20260905123047 77 199 0.0 0.0 0.00 0.03 0.00 98 1012.9
20260905121546 77 199 0.0 0.0 0.00 0.03 0.00 98 1012.8
20260905120045 76 199 0.0 0.0 0.00 0.03 0.00 98 1012.7
20260905114547 76 199 0.0 0.0 0.00 0.03 0.00 98 1012.6
20260905113043 76 199 0.0 1.0 0.00 0.03 0.00 98 1012.4
20260905111602 76 207 0.0 0.0 0.00 0.03 0.00 98 1012.3
20260905110043 76 207 0.0 0.0 0.00 0.03 0.00 98 1012.2
20260905104543 76 207 0.0 0.0 0.00 0.03 0.00 98 1012.0
20260905103042 76 207 0.0 0.0 0.00 0.03 0.00 98 1011.8
20260905101545 76 207 0.0 0.0 0.00 0.03 0.00 98 1011.9
20260905100040 76 207 0.0 0.0 0.00 0.03 0.00 98 1012.0
20260905094540 76 207 0.0 0.0 0.00 0.03 0.00 98 1012.0
20260905093042 76 207 0.0 0.0 0.00 0.03 0.00 98 1011.9
20260905091540 76 207 0.0 0.0 0.00 0.03 0.00 97 1011.7
20260905090038 76 207 0.0 0.0 0.00 0.03 0.00 98 1011.8
20260905084539 76 207 0.0 0.0 0.00 0.03 0.00 98 1011.9
20260905083039 76 207 0.0 0.0 0.00 0.03 0.00 98 1011.9
20260905081535 76 207 0.0 0.0 0.00 0.03 0.00 98 1011.8
20260905080042 76 207 0.0 0.0 0.00 0.03 0.00 97 1011.9
20260905074537 77 207 0.0 0.0 0.00 0.03 0.00 98 1011.9
20260905073036 77 207 0.0 0.0 0.00 0.03 0.00 97 1011.9
20260905071533 77 207 0.0 0.0 0.00 0.03 0.00 98 1011.8
20260905070035 77 207 0.0 0.0 0.00 0.03 0.00 97 1011.9
20260905064534 77 207 0.0 0.0 0.00 0.03 0.00 98 1012.1
20260905063026 77 207 0.0 1.0 0.00 0.03 0.00 98 1012.2
20260905061524 78 221 0.0 0.0 0.00 0.03 0.00 98 1012.5
20260905060033 77 221 0.0 0.0 0.00 0.03 0.00 97 1012.6
20260905054521 78 221 0.0 0.0 0.00 0.03 0.00 98 1012.8
20260905053029 78 221 0.0 0.0 0.00 0.03 0.00 98 1012.9
20260905051516 78 221 0.0 0.0 0.00 0.03 0.00 97 1013.2
20260905050015 78 221 0.0 0.0 0.00 0.03 0.00 97 1013.3
20260905044516 78 221 0.0 0.0 0.00 0.03 0.00 97 1013.4
20260905043013 78 221 0.0 0.0 0.00 0.03 0.00 97 1013.5
20260905041512 78 221 0.0 0.0 0.00 0.03 0.00 97 1013.6
20260905040017 78 221 0.0 0.0 0.00 0.03 0.00 97 1013.5
20260905034508 78 221 0.0 0.0 0.01 0.03 0.03 97 1013.5
20260905033008 78 221 0.0 1.0 0.01 0.03 0.03 97 1013.6
20260905031508 78 221 0.0 0.0 0.01 0.03 0.03 97 1013.5
20260905030007 79 221 0.0 0.0 0.01 0.03 0.03 96 1013.5
20260905024512 79 221 0.0 0.0 0.00 0.02 0.02 96 1013.4
20260905023007 79 221 0.0 0.0 0.00 0.02 0.02 96 1013.2
20260905021507 79 221 0.0 0.0 0.00 0.02 0.02 96 1013.3
20260905020006 79 221 0.0 0.0 0.00 0.02 0.02 96 1013.3
20260905014505 79 221 0.0 0.0 0.00 0.02 0.02 96 1013.3
20260905013004 79 221 0.0 0.0 0.00 0.02 0.02 96 1013.3
20260905011503 79 221 0.0 0.0 0.00 0.02 0.02 96 1013.4
20260905010004 79 221 0.0 0.0 0.00 0.02 0.02 96 1013.2
20260905004504 79 221 0.0 0.0 0.02 0.02 0.02 95 1013.0
20260905003003 79 221 0.0 0.0 0.02 0.02 0.02 94 1013.0
20260905001502 80 221 0.0 0.0 0.02 0.02 0.02 93 1012.8
20260905000002 81 154 0.0 3.0 0.02 0.02 0.02 90 1012.9
20260904234502 85 188 1.0 3.0 0.00 0.00 0.00 87 1012.9
20260904233002 85 141 0.0 2.0 0.00 0.00 0.00 89 1012.5
20260904231600 86 139 0.0 3.0 0.00 0.00 0.00 88 1012.4
20260904230059 86 172 0.0 4.0 0.00 0.00 0.00 87 1012.2
20260904224558 86 174 0.0 3.0 0.00 0.00 0.00 87 1012.1